Wind_Speed
33 38 33 33 38 34 35 32 30 30 28 27 28 30 28 27 28 26 27 27 26 25 22 20 20 19 18 17 17 16 15 15 15 15 14 15 13 12 15 21 18 18 15
30 33 37 38 40 39 37 38 32 32 32 29 28 29 29 28 27 29 30 28 28 26 23 20 20 20 17 18 17 17 16 15 15 15 15 16 17 18 19 18 22 23 20
41 35 38 41 45 46 45 44 39 33 32 32 33 33 32 31 32 31 30 31 31 27 25 22 21 20 18 16 16 16 13 14 16 16 18 19 20 19 18 16 21 27 26
38 44 39 39 46 49 47 47 45 39 34 34 36 37 36 34 32 30 29 31 32 30 25 25 24 22 20 19 18 19 16 16 16 20 20 21 22 24 23 24 24 28 22
40 39 40 40 43 49 51 49 49 46 41 39 34 38 39 35 36 35 33 33 33 31 27 28 28 27 22 21 21 20 20 19 17 21 24 26 24 24 17 24 28 25 24
51 41 48 42 45 48 54 53 51 51 48 43 42 39 40 38 40 38 39 36 34 33 30 28 28 28 24 24 21 22 22 20 20 22 24 25 26 22 22 24 23 23 26
54 46 49 50 46 49 49 48 49 50 46 47 46 44 42 43 44 43 41 40 37 36 33 32 27 24 24 24 26 24 21 19 21 22 24 22 22 21 21 20 22 24 25
38 56 46 50 50 51 54 55 57 59 57 53 46 44 40 43 44 42 43 42 39 35 34 33 30 25 23 25 27 27 25 21 22 24 21 20 20 20 21 21 23 25 25
48 45 56 57 58 60 62 62 60 59 61 55 47 48 44 42 44 41 40 41 39 38 37 37 33 30 28 28 30 30 27 24 27 24 22 22 21 21 22 24 25 26 27
29 50 50 44 58 58 59 60 62 59 58 59 50 48 49 45 43 44 38 35 40 39 38 39 35 35 33 31 30 29 29 28 26 27 24 23 22 24 25 27 28 28 29
36 32 38 46 42 46 52 54 57 58 59 64 54 44 45 45 45 45 43 36 36 38 39 40 38 39 36 33 28 30 31 30 31 29 27 26 26 27 29 29 29 29 30
59 58 41 45 44 41 42 48 46 48 53 55 55 49 44 47 48 47 46 43 38 35 38 40 40 39 36 31 32 32 31 31 32 29 29 29 29 30 31 29 28 29 29
49 36 39 47 46 48 49 50 48 46 48 49 47 46 43 48 48 48 48 45 42 38 39 40 38 38 38 35 34 33 31 32 32 31 31 32 31 31 28 28 29 29 28
39 49 45 43 39 39 42 42 44 43 44 43 45 45 42 45 45 49 50 47 41 39 39 41 40 43 43 37 35 33 31 33 33 33 33 31 30 28 27 28 29 29 28
34 36 38 38 35 36 37 38 36 37 42 40 43 45 45 47 44 49 47 44 39 37 38 37 38 39 41 41 36 33 32 33 34 34 32 31 28 26 26 27 32 31 28
23 18 25 32 35 38 39 40 40 38 42 36 35 35 36 40 41 42 44 41 40 39 41 37 37 37 39 43 34 36 34 34 34 33 32 29 26 24 25 30 32 28 25
19 14 6 16 22 31 35 34 33 33 36 38 39 35 33 33 36 41 46 42 41 40 42 39 40 41 39 37 38 40 36 35 35 33 31 28 26 23 26 31 28 25 23
29 20 13 4 11 15 21 25 26 28 32 35 38 39 36 35 35 39 38 40 41 38 40 40 40 35 42 41 43 42 36 35 37 34 31 30 27 23 28 27 26 25 21
24 15 11 7 6 11 20 23 23 22 20 25 29 32 34 42 42 41 38 37 40 41 38 36 41 43 42 44 44 39 38 40 37 34 32 32 29 22 26 25 23 22 20
23 16 10 3 7 9 16 16 19 22 19 15 15 22 29 32 38 38 42 43 40 35 37 36 40 43 43 43 40 40 41 40 37 35 37 37 29 21 25 23 21 20 19
16 18 21 15 7 12 19 20 18 18 18 17 20 21 20 26 31 33 36 38 43 45 42 44 42 41 42 41 41 40 40 40 38 39 41 35 18 22 23 22 19 18 16
20 27 20 10 18 16 19 21 24 21 25 29 23 22 25 26 27 32 35 43 40 37 37 41 39 38 42 44 42 42 43 41 40 42 39 22 20 24 24 21 18 16 17
28 29 28 23 20 18 27 31 24 32 32 30 28 26 29 31 31 31 33 37 37 39 42 36 47 45 50 45 45 45 44 44 44 41 30 18 23 24 22 18 17 16 20
21 29 34 33 32 33 30 28 33 28 25 23 23 27 28 32 35 35 34 35 38 38 47 35 47 44 49 45 44 46 46 46 44 36 23 21 26 24 21 20 18 18 22
21 24 36 39 38 38 33 30 26 36 32 26 25 27 28 29 33 36 36 36 42 40 35 42 47 41 40 42 41 46 44 42 39 33 22 27 25 24 22 20 19 22 21
25 29 30 31 40 41 40 34 28 29 29 34 34 31 30 28 31 33 38 33 39 36 46 38 42 42 38 41 40 41 42 39 39 28 26 25 27 25 22 21 22 22 20
Wind_Direction
233 231 230 228 239 239 248 251 237 226 228 229 230 233 234 234 235 236 235 235 235 241 246 247 252 252 256 258 256 257 262 263 262 270 279 281 286 281 284 304 296 302 314
232 239 227 225 234 239 240 250 249 234 228 232 235 237 239 239 238 238 238 234 237 242 249 248 248 253 253 255 255 254 260 260 262 262 258 274 278 281 289 292 286 303 309
232 230 229 226 229 236 239 243 248 247 234 231 235 234 234 235 234 235 236 237 236 241 246 243 241 246 248 249 245 249 256 260 261 261 260 273 278 280 281 269 287 293 299
235 233 225 227 226 234 239 240 242 251 251 235 234 237 240 243 247 247 242 239 238 239 241 238 240 244 243 243 248 253 257 264 270 260 264 270 275 271 271 282 282 274 284
234 232 224 230 230 233 237 242 243 245 254 256 246 240 241 246 247 245 245 242 237 237 237 235 238 243 243 245 253 259 258 266 272 272 265 267 272 272 270 270 273 277 287
229 237 236 232 228 230 236 239 244 245 247 252 258 247 242 243 246 247 245 244 241 235 235 234 238 238 242 247 254 258 260 269 267 274 266 268 271 272 262 269 267 281 286
235 233 234 228 225 228 233 235 242 243 245 249 256 257 244 243 247 249 249 246 244 237 232 236 240 243 249 249 251 259 265 274 279 270 272 274 273 267 262 254 260 267 277
238 231 231 225 224 230 231 237 243 248 249 251 250 253 254 248 245 245 247 246 244 244 236 236 240 241 246 248 254 252 253 258 275 279 281 271 265 257 255 263 270 276 283
240 234 233 235 240 241 240 237 241 248 253 250 251 252 255 255 248 245 246 245 242 240 236 237 239 239 247 251 255 257 258 262 275 286 275 266 261 264 269 273 276 281 287
225 228 233 238 239 240 240 239 239 242 251 255 252 253 255 256 254 247 245 247 242 238 238 235 236 238 247 254 261 256 256 262 272 281 277 269 270 274 275 276 280 286 290
219 228 230 235 242 232 232 235 237 239 241 250 253 249 249 249 250 248 248 246 249 243 239 235 233 237 245 254 258 254 252 262 269 278 273 268 271 275 276 280 285 290 294
234 241 230 229 230 223 225 224 229 234 234 239 249 247 245 245 246 245 248 245 246 247 241 240 236 236 244 255 249 250 253 259 267 276 271 268 271 275 279 284 288 291 296
235 236 236 231 233 234 236 236 239 235 237 245 246 247 244 242 242 249 250 248 245 247 239 235 235 243 250 249 245 247 254 259 266 270 265 266 272 278 281 285 291 295 294
229 225 223 225 232 235 235 230 231 228 234 239 243 245 244 244 245 242 249 245 241 248 237 234 229 237 246 242 244 248 253 260 264 264 259 265 273 277 283 289 294 297 296
175 193 208 217 225 227 227 227 229 233 242 246 241 240 246 251 252 239 240 241 244 236 233 236 237 240 249 240 243 249 255 261 261 257 257 263 270 276 285 298 298 295 293
168 186 201 207 213 222 228 234 234 233 235 238 234 238 242 242 238 234 238 240 240 231 233 235 230 236 245 242 247 250 254 256 255 251 257 263 269 276 293 289 291 289 290
151 145 167 202 213 225 230 224 231 229 226 229 230 234 236 233 227 227 236 236 233 227 231 233 233 234 240 242 255 251 248 250 249 250 257 262 264 278 283 284 284 285 285
146 148 147 215 207 204 205 204 210 217 224 231 236 233 230 229 226 229 235 239 232 239 240 234 234 235 245 244 251 244 243 246 246 250 255 254 261 271 281 281 281 281 283
151 127 138 140 240 244 220 209 210 214 221 230 229 231 229 228 225 227 229 232 234 234 235 231 227 230 233 241 239 239 241 242 244 248 249 253 260 270 275 274 276 278 283
255 233 208 205 217 258 264 250 236 233 234 246 247 240 234 235 232 230 228 229 229 230 227 225 230 232 235 237 236 237 238 239 243 246 249 253 260 275 267 270 273 276 283
277 264 263 204 223 236 253 271 263 244 242 256 260 258 254 243 240 237 233 233 231 234 234 231 234 233 234 234 231 236 236 240 242 246 251 260 263 262 266 264 266 272 282
242 273 265 266 278 240 263 271 263 262 262 273 266 264 255 255 252 242 233 234 240 240 232 233 232 237 233 231 230 235 236 240 244 251 259 246 253 258 256 258 263 270 279
226 221 231 229 237 231 246 249 272 265 263 259 267 262 258 252 251 246 244 238 231 235 227 244 229 239 237 227 230 232 235 242 246 254 245 243 249 248 250 255 262 272 275
240 225 225 225 219 223 219 235 247 252 255 247 250 263 263 252 247 248 245 238 230 229 226 234 239 230 238 234 230 232 240 246 252 253 243 243 239 242 247 253 261 270 275
252 234 225 225 219 221 218 224 238 246 248 250 248 254 262 258 251 247 247 249 235 233 245 245 239 240 238 253 240 237 244 250 256 239 233 236 239 244 246 254 262 266 272
266 259 239 238 237 229 225 227 223 242 238 240 246 246 253 261 254 253 245 239 236 238 239 235 242 246 239 241 231 233 244 249 253 229 229 233 242 241 245 252 257 261 270
Height
3102 3106 3110 3112 3110 3115 3118 3119 3121 3125 3129 3131 3133 3136 3140 3144 3147 3151 3153 3157 3160 3162 3164 3167 3168 3171 3172 3174 3175 3176 3176 3177 3176 3177 3178 3178 3178 3178 3178 3179 3177 3177 3177
3095 3098 3103 3106 3104 3106 3111 3112 3115 3119 3123 3126 3129 3131 3135 3139 3142 3144 3148 3150 3153 3156 3159 3162 3164 3166 3169 3169 3171 3171 3172 3172 3173 3173 3174 3174 3175 3174 3175 3175 3173 3172 3173
3085 3090 3095 3099 3100 3099 3102 3105 3108 3112 3117 3121 3123 3125 3128 3131 3134 3138 3142 3144 3147 3151 3154 3157 3159 3162 3164 3165 3166 3167 3168 3168 3168 3169 3170 3170 3171 3171 3171 3171 3171 3169 3167
3077 3082 3086 3090 3092 3092 3094 3097 3102 3106 3110 3113 3116 3118 3121 3125 3129 3132 3136 3139 3143 3146 3148 3152 3154 3156 3159 3160 3162 3163 3164 3164 3165 3165 3166 3166 3167 3167 3167 3166 3165 3165 3166
3069 3072 3077 3081 3085 3086 3086 3089 3093 3098 3102 3105 3110 3112 3114 3119 3122 3126 3129 3132 3137 3141 3144 3146 3148 3150 3154 3156 3157 3158 3159 3160 3161 3160 3160 3160 3161 3162 3162 3161 3159 3158 3159
3060 3065 3068 3072 3076 3078 3078 3081 3084 3088 3093 3098 3101 3104 3107 3111 3113 3117 3121 3126 3130 3134 3138 3140 3142 3145 3147 3149 3151 3152 3153 3154 3155 3155 3154 3154 3155 3156 3157 3158 3156 3154 3153
3050 3053 3059 3061 3065 3069 3070 3073 3075 3079 3084 3089 3092 3095 3099 3101 3103 3108 3113 3118 3122 3126 3131 3134 3136 3139 3142 3144 3145 3147 3148 3149 3150 3150 3149 3149 3149 3150 3151 3152 3153 3153 3151
3037 3043 3048 3053 3057 3060 3062 3064 3066 3066 3073 3079 3084 3087 3091 3093 3094 3099 3103 3109 3114 3119 3124 3127 3130 3132 3135 3137 3138 3139 3141 3142 3144 3145 3143 3143 3144 3144 3145 3146 3146 3145 3144
3026 3031 3038 3042 3046 3047 3051 3055 3057 3058 3057 3065 3075 3076 3082 3085 3085 3089 3094 3099 3106 3111 3115 3119 3123 3126 3128 3130 3131 3133 3136 3137 3137 3137 3137 3137 3138 3137 3137 3137 3138 3138 3137
3013 3019 3024 3028 3033 3037 3040 3045 3049 3052 3052 3048 3062 3068 3071 3076 3078 3079 3085 3091 3095 3101 3106 3110 3115 3117 3120 3122 3124 3127 3129 3129 3128 3130 3131 3132 3131 3132 3132 3131 3130 3130 3128
3005 3009 3014 3018 3021 3025 3029 3034 3039 3044 3048 3042 3049 3057 3061 3065 3068 3071 3077 3083 3086 3093 3097 3102 3106 3109 3111 3114 3117 3119 3121 3122 3122 3123 3124 3125 3125 3125 3124 3123 3122 3121 3119
2995 2999 3004 3008 3012 3014 3017 3021 3027 3032 3038 3040 3038 3045 3051 3057 3059 3062 3066 3073 3079 3084 3089 3093 3097 3100 3104 3107 3110 3112 3114 3115 3115 3116 3117 3118 3118 3117 3117 3116 3115 3113 3110
2984 2990 2993 2997 3000 3003 3006 3011 3016 3022 3028 3031 3031 3035 3041 3045 3050 3055 3060 3064 3069 3073 3079 3083 3088 3092 3097 3100 3103 3105 3107 3108 3109 3110 3110 3110 3111 3111 3110 3108 3107 3104 3101
2970 2981 2984 2986 2990 2992 2996 3001 3006 3011 3017 3022 3025 3027 3030 3036 3041 3045 3049 3053 3061 3063 3068 3074 3079 3084 3088 3091 3095 3097 3099 3101 3103 3103 3103 3104 3103 3103 3102 3101 3099 3096 3094
2958 2968 2974 2977 2981 2985 2987 2992 2997 3003 3009 3013 3016 3019 3023 3025 3028 3033 3037 3044 3049 3055 3060 3066 3071 3076 3080 3083 3086 3090 3091 3092 3094 3095 3096 3097 3096 3096 3095 3093 3091 3089 3087
2952 2958 2966 2970 2975 2979 2982 2984 2989 2995 3000 3005 3007 3011 3013 3016 3019 3024 3030 3035 3041 3046 3051 3056 3060 3066 3071 3076 3079 3082 3083 3084 3087 3088 3089 3089 3089 3088 3087 3086 3085 3083 3081
2950 2956 2961 2966 2969 2973 2975 2979 2982 2986 2990 2994 2997 3001 3003 3006 3010 3017 3022 3025 3031 3037 3043 3048 3053 3057 3062 3068 3072 3074 3075 3076 3078 3080 3081 3081 3080 3079 3079 3079 3077 3076 3075
2938 2945 2952 2961 2965 2967 2969 2972 2976 2979 2983 2986 2988 2991 2994 2999 3003 3008 3012 3017 3023 3028 3033 3039 3044 3051 3054 3058 3062 3064 3066 3068 3069 3071 3072 3072 3071 3071 3072 3071 3069 3068 3068
2935 2941 2951 2956 2961 2962 2964 2970 2972 2974 2976 2980 2982 2985 2987 2990 2995 2998 3003 3008 3014 3018 3022 3029 3035 3039 3043 3048 3052 3054 3057 3059 3061 3063 3063 3062 3061 3063 3065 3064 3063 3062 3061
2928 2936 2945 2950 2955 2958 2958 2962 2966 2969 2973 2975 2977 2980 2982 2984 2987 2990 2994 2999 3004 3007 3016 3020 3026 3030 3036 3040 3042 3045 3048 3050 3052 3054 3054 3052 3054 3056 3057 3057 3057 3056 3055
2932 2934 2935 2941 2950 2952 2952 2956 2959 2964 2967 2970 2972 2975 2977 2980 2982 2984 2987 2991 2995 3002 3009 3014 3017 3022 3027 3031 3033 3037 3040 3043 3044 3044 3043 3045 3046 3049 3051 3051 3051 3051 3050
2930 2928 2933 2942 2944 2950 2950 2949 2952 2957 2960 2963 2966 2968 2971 2973 2975 2977 2979 2983 2987 2994 3000 3004 3007 3012 3017 3020 3023 3028 3031 3033 3035 3035 3036 3037 3040 3043 3044 3044 3044 3044 3045
2926 2930 2930 2934 2935 2940 2941 2942 2942 2946 2950 2954 2957 2960 2963 2964 2968 2970 2972 2975 2980 2984 2989 2995 2999 3001 3003 3007 3014 3019 3021 3023 3024 3025 3027 3029 3034 3036 3037 3038 3038 3037 3039
2919 2921 2923 2927 2930 2931 2934 2935 2934 2936 2941 2944 2947 2951 2953 2956 2959 2962 2964 2967 2972 2978 2983 2984 2989 2991 2995 2998 3003 3009 3011 3013 3014 3017 3018 3023 3027 3029 3031 3032 3032 3032 3033
2911 2913 2914 2916 2918 2921 2924 2925 2925 2925 2928 2932 2936 2940 2944 2947 2951 2953 2957 2960 2966 2971 2973 2976 2979 2982 2986 2991 2993 3001 3003 3004 3006 3006 3010 3015 3019 3022 3024 3025 3026 3026 3025
2902 2903 2905 2906 2909 2913 2915 2915 2917 2916 2918 2922 2927 2931 2935 2940 2944 2945 2947 2950 2957 2963 2968 2969 2973 2976 2979 2981 2988 2993 2993 2995 2996 2997 3004 3008 3011 3014 3016 3018 3019 3019 3019